Location: Unspecified
(35.6961°N, 0.0000°E)
Time: 11:09:18
(UTC+00:00)

Vanguard 2 Rocket - Pass Details

Date: 26 May 2019
Orbit: 554 x 3326 km, 32.9° (Epoch: 16 June)

Event Time Altitude Azimuth Distance (km) Brightness Sun altitude
Rises 11:16:44 0° 281° (W) 5,424 10.7 73.0°
Reaches altitude 10° 11:21:37 10° 271° (W) 3,891 10.2 73.5°
Maximum altitude 11:28:51 25° 221° (SW) 2,137 9.3 74.2°
Drops below altitude 10° 11:33:44 10° 166° (SSE) 2,520 9.6 74.6°
Sets 11:36:11 0° 152° (SSE) 3,207 9.9 74.7°
